Simultaneous Nadir Overpasses (SNOs) Predictions

Prediction of SNOs between LANDSAT-8 and NOAA-19 Satellite Orbit:

Table of predicted SNOs for the next 14.0 days since TLE Epoch: 6/11/2016
Index Date (LANDSAT-8) Time (LANDSAT-8) Lat,Lon (LANDSAT-8) SZA (LANDSAT-8 ) Date (NOAA-19) Time (NOAA-19) Lat,Lon (NOAA-19) SZA (NOAA-19 ) Distance(km) Time Diff (sec)
1 06/11/2016 07:02:39 75.19, 80.29 52.09 06/11/2016 07:01:32 75.26, 77.60 52.09 76.62 67
2 06/11/2016 07:52:17 -74.66,-113.45 128.49 06/11/2016 07:52:18 -74.69,-113.44 128.45 3.51 1
3 06/13/2016 12:36:33 -74.75, 175.70 128.52 06/13/2016 12:35:22 -74.76, 175.65 128.52 2.11 71
4 06/13/2016 13:26:00 74.68, -16.84 51.40 06/13/2016 13:26:25 74.69, -16.92 51.42 3.21 25
5 06/15/2016 18:10:16 74.76, -87.71 51.39 06/15/2016 18:09:29 74.75, -87.78 51.37 2.61 47
6 06/15/2016 18:59:45 -74.69, 79.75 128.69 06/15/2016 19:00:25 -74.69, 79.64 128.68 3.49 40
7 06/17/2016 23:44:02 -74.72, 8.76 128.72 06/17/2016 23:43:28 -74.72, 8.84 128.72 2.48 34
8 06/18/2016 00:33:29 74.64, 176.20 51.20 06/18/2016 00:34:32 74.66, 176.25 51.22 2.65 63
9 06/20/2016 05:17:45 74.71, 105.32 51.25 06/20/2016 05:17:36 74.72, 105.37 51.25 1.53 9
10 06/20/2016 06:07:16 -74.55, -87.46 128.93 06/20/2016 06:08:28 -74.51, -86.78 128.94 20.42 72
11 06/22/2016 10:01:57 74.99, 34.96 51.54 06/22/2016 10:00:46 75.06, 33.64 51.58 38.70 71
12 06/22/2016 10:51:30 -74.72,-158.09 128.75 06/22/2016 10:51:35 -74.73,-158.12 128.73 1.47 5
13 06/24/2016 15:35:46 -74.79, 131.02 128.63 06/24/2016 15:34:38 -74.77, 131.07 128.66 3.18 68
14 06/24/2016 16:25:13 74.70, -61.56 51.28 06/24/2016 16:25:43 74.70, -61.52 51.28 0.99 30




NCC Satellite Simultaneous Nadir Overpasses (SNOs) Prediction Service
